{"data":{"norad_id":62174,"intl_designator":"2024-225M","name":"STARLINK-32552","alt_names":[],"object_type":"PAYLOAD","status":"ACTIVE","operator":null,"country":"US","launch_date":"2024-11-30","launch_site_code":"AFWTR","launch_vehicle":null,"mission":null,"orbit_class":"UNKNOWN","rcs_meters":null,"size_class":null,"mass_kg":null,"dimensions":null,"purposes":["comms"],"wikipedia_slug":null,"has_3d_model":false,"image_url":null,"decayed_at":null,"tle_current":{"epoch":"2026-09-21T17:37:39.312192Z","epoch_age_seconds":71025,"freshness":"FRESH","line1":"1 62174U 24225M   26264.73448278  .00001186  00000+0  10713-3 0  9998","line2":"2 62174  70.0024  30.0392 0002924 276.3999  83.6827 14.98339927 99247","mean_motion":14.98339927,"eccentricity":0.0002924,"inclination_deg":70.0024,"raan_deg":30.0392,"arg_perigee_deg":276.3999,"mean_anomaly_deg":83.6827,"bstar":0.00010713,"rev_number":9924,"period_min":96.106362384882,"perigee_km":569.99296526015,"apogee_km":574.05742011043,"semimajor_km":6950.1621926853,"source":"CELESTRAK","updated_at":"2026-09-22T09:00:49.536373Z"}}}